Location: Briis
(48.6240°N, 2.1211°E)
Time: 15:57:33
(UTC+00:00)

Cosmos 1980 Rocket - Pass Details

Date: 25 September 2020
Orbit: 831 x 848 km, 71.0° (Epoch: 22 October)

Event Time Altitude Azimuth Distance (km) Brightness Sun altitude
Exits shadow 01:05:43 18° 71° (ENE) 1,961 4.4 -39.1°
Drops below altitude 10° 01:07:48 10° 52° (NE) 2,468 5.2 -39.0°
Sets 01:10:44 0° 38° (NE) 3,405 6.2 -38.8°
